NOAA 16 DEB, 41510

Orbit data source: Space-Track

NOAA 16 DEB, 41510 is space debris in SSO originally from a launch on Thu, 21 Sep 2000 UTC launched from the Air Force Western Test Range (AFWTR). Debris objects in space refer to the collection of defunct objects orbiting the Earth. Examples of debris include non-operational satellites, rocket bodies, and fragments generated from explosions, collisions, or faulty payload assembly.

Loading next visibility...
Identifier
41510, 2000-055MJ
Orbit
SSO
Country
Flag of USUS
Related business
Manufacturer
Unknown
Mission
Spacecraft
Bus & Motor
Unknown
Mass
Unknown
Launch date (UTC)
2000-09-21 (26 years ago)
Launch vehicle
Unknown
Launch site
Air Force Western Test Range (AFWTR)
Object type
Payload
Rocket body
Debris
Shape & HBR
Unknown shape, 0.1 m
Radar Cross Section
Medium (>0.1 m² and <1 m²)

Expand to show TLE details & history
Last TLE update: 13 hours ago

TLE from 13 hours ago
0 NOAA 16 DEB
1 41510U 00055MJ  26256.50370706  .00002601  00000-0  10162-2 0  9991
2 41510  98.7559 350.6871 0024971 114.8608 245.5174 14.30284356542013
Epoch: 2026-09-13T12:05Z
TLE epoch observation values (Epoch: 2026-09-13T12:05:20.289Z)
Latitude
-0.00006°
Longitude
176.85516°
Altitude
801.165 km
Speed
7.449 km/s
True Right ascension
23h 22m 44s
True Declination
0° 00' 00"
Sunlit
Object was in full shadow at epoch
Visualization orbit readout
Latitude
Unknown
Longitude
Unknown
Altitude
Unknown
Speed
Unknown
Apparent Right ascension
Unknown
Apparent Declination
Unknown
Sunlit
N/A
Visualization observer readout
Local Sidereal Time
18:05:09
Azimuth
Unknown
Elevation
Unknown
Doppler factor
Unknown
Orbital elements
Apogee altitude
805.822 km
Perigee altitude
770.033 km
Semi-major axis
7,166.065 km
Eccentricity
0.0025
Inclination
98.7559°
RAAN
350.6871°
Arg. of periapsis
114.8608°
True anomaly
245.25732°
Mean anomaly
245.5174°
Eccentric anomaly
245.38733°
Mean motion
3.57785 °/min
Orbital period
100.62 mins
BSTAR
0.0010162
Loading maneuver chart data...
Computing Atmospheric mass density...
Loading historical data...
Loading historical data...
Loading historical data...
Loading historical data...
Loading historical data...
Loading historical data...
Loading historical data...

Documentation

Showing up to 5 results
|